Lid_Strength_Index
3 3 3 3 3 2 2 2 4 6 5 2 3 1 1 1 1 0 -0 4 6 6 6 6 4 4 3 3 3 2 2 2 1 1 1 1 1 1
2 3 3 3 3 3 3 3 2 3 5 3 2 0 -0 1 1 -0 -1 3 6 7 7 7 6 5 5 4 4 4 4 4 3 3 3 4 4 4
2 3 3 3 3 3 3 2 4 3 5 3 2 0 1 1 1 -1 -1 -1 4 7 7 7 7 7 7 7 7 7 7 7 7 6 6 6 7 7
3 3 4 4 4 4 4 4 3 3 3 4 2 1 1 1 2 1 0 0 5 9 9 9 9 9 9 10 10 10 11 11 11 10 10 10 10 10
4 4 4 4 5 5 4 4 3 3 3 4 3 2 1 2 3 2 4 6 9 10 10 10 10 10 10 11 11 11 12 12 13 13 13 13 13 13
4 4 4 4 4 5 5 5 4 4 4 4 3 3 4 3 3 3 6 7 9 11 11 11 11 11 12 12 12 12 12 13 14 14 15 15 15 14
4 4 4 5 7 6 4 5 4 4 4 4 4 4 5 4 5 4 6 12 12 12 13 14 13 13 13 13 13 13 14 15 15 16 16 16 16 15
4 4 4 7 7 9 8 8 5 4 5 5 5 6 4 4 4 5 10 13 14 13 15 16 15 15 15 14 14 14 15 16 16 16 16 16 16 15
3 3 3 3 5 4 11 12 13 13 14 5 4 5 6 7 5 9 11 13 14 16 15 18 16 16 15 15 15 15 16 16 16 15 16 16 16 17
2 2 2 3 4 5 9 13 14 14 14 13 14 14 14 13 12 12 14 18 17 17 16 18 16 17 15 15 15 15 16 17 18 17 17 17 17 17
2 2 2 3 7 9 11 15 16 17 15 15 16 15 15 15 14 14 16 16 18 19 18 18 18 17 17 16 16 17 17 17 17 17 17 17 17 17
13 14 14 10 11 12 13 15 18 19 19 19 19 19 18 18 18 17 16 19 20 21 19 19 19 18 18 16 16 16 16 16 17 17 17 17 17 17
15 15 15 14 14 14 14 16 18 20 20 20 20 20 20 20 20 19 19 18 19 21 19 17 18 19 19 19 18 17 17 16 16 16 15 15 15 15
16 16 16 16 16 16 17 18 19 20 20 20 20 21 20 20 20 19 19 18 18 19 17 17 19 19 19 20 20 18 17 16 16 16 15 14 14 14
17 17 17 17 18 18 18 19 19 20 20 21 21 21 20 19 19 19 19 19 19 19 18 18 18 19 18 19 19 18 17 16 15 15 15 15 15 13
19 18 19 18 18 18 17 17 18 19 19 19 19 19 18 18 19 18 18 18 19 19 18 18 18 18 18 17 17 17 16 17 15 15 15 14 13 12
16 16 17 17 18 18 17 17 17 17 17 17 18 18 18 18 19 18 18 17 18 18 18 17 16 16 16 17 17 16 16 16 15 15 14 14 13 11
14 15 15 15 16 16 17 17 16 17 17 17 17 17 17 17 17 16 16 16 17 17 17 17 16 15 15 16 16 16 16 15 15 14 13 14 14 11
15 15 15 15 16 16 16 17 17 17 16 16 16 16 16 17 16 16 16 16 17 16 16 16 16 17 17 17 15 17 16 15 15 14 14 14 13 12
15 16 16 16 16 17 17 17 16 16 16 16 16 16 16 16 16 16 16 16 16 16 16 16 16 17 18 18 17 15 14 15 15 15 15 13 11 10
16 16 15 16 16 16 16 16 16 16 16 16 16 16 16 16 16 17 18 19 18 16 17 16 16 19 16 14 16 15 14 13 13 14 13 13 12 9
16 16 16 16 16 16 16 16 16 16 17 16 16 16 15 16 16 17 16 16 17 16 16 16 15 15 15 16 16 16 14 13 11 10 10 10 10 10
16 16 16 16 16 16 16 16 17 17 17 17 17 16 16 16 16 16 16 17 17 17 17 17 15 15 15 15 16 15 14 13 11 10 8 7 8 8